Precipitable_Water
1.43 1.41 1.41 1.41 1.39 1.37 1.37 1.39 1.39 1.41 1.41 1.39 1.35 1.33 1.31 1.29 1.33 1.39 1.43 1.46 1.46 1.46 1.48 1.50 1.52 1.52 1.52 1.52 1.54 1.56 1.56 1.54 1.52 1.52 1.48 1.44 1.43 1.39 1.35 1.31 1.25 1.17 1.11 1.07 1.03 0.99 0.93 0.89 0.85 0.82 0.78 0.76 0.74 0.72 0.68 0.68 0.66 0.64 0.62 0.60 0.56 0.54 0.52 0.50 0.48 0.46 0.46 0.46 0.46
1.41 1.41 1.41 1.39 1.39 1.39 1.37 1.37 1.39 1.39 1.41 1.39 1.37 1.35 1.33 1.31 1.29 1.33 1.39 1.43 1.44 1.46 1.48 1.50 1.50 1.50 1.50 1.50 1.52 1.54 1.54 1.52 1.50 1.50 1.48 1.44 1.43 1.39 1.33 1.29 1.23 1.15 1.07 1.03 0.99 0.95 0.93 0.89 0.83 0.80 0.78 0.76 0.74 0.72 0.70 0.68 0.66 0.64 0.62 0.62 0.60 0.56 0.50 0.48 0.46 0.44 0.44 0.44 0.44
1.39 1.39 1.39 1.39 1.37 1.37 1.35 1.35 1.35 1.35 1.39 1.39 1.39 1.37 1.35 1.31 1.29 1.31 1.35 1.39 1.43 1.46 1.46 1.48 1.48 1.48 1.48 1.48 1.52 1.52 1.52 1.50 1.50 1.50 1.48 1.44 1.41 1.37 1.31 1.25 1.21 1.11 1.03 0.99 0.95 0.93 0.91 0.89 0.82 0.80 0.78 0.76 0.74 0.72 0.70 0.68 0.68 0.66 0.64 0.62 0.60 0.56 0.50 0.48 0.46 0.46 0.44 0.44 0.42
1.37 1.37 1.37 1.37 1.35 1.35 1.33 1.33 1.31 1.33 1.35 1.37 1.39 1.39 1.37 1.33 1.29 1.29 1.33 1.37 1.41 1.43 1.44 1.46 1.48 1.48 1.48 1.50 1.50 1.52 1.52 1.50 1.50 1.48 1.46 1.46 1.39 1.35 1.29 1.23 1.17 1.11 1.03 0.95 0.93 0.91 0.87 0.83 0.82 0.80 0.76 0.74 0.72 0.70 0.68 0.68 0.66 0.66 0.64 0.64 0.62 0.60 0.56 0.50 0.50 0.48 0.46 0.44 0.44
1.37 1.37 1.37 1.35 1.35 1.35 1.35 1.35 1.33 1.33 1.33 1.35 1.37 1.37 1.37 1.35 1.31 1.29 1.31 1.33 1.35 1.39 1.43 1.48 1.48 1.50 1.50 1.50 1.50 1.50 1.50 1.50 1.50 1.48 1.46 1.44 1.39 1.33 1.27 1.19 1.13 1.07 0.99 0.91 0.89 0.87 0.85 0.82 0.80 0.78 0.76 0.74 0.72 0.72 0.70 0.68 0.66 0.64 0.64 0.64 0.64 0.60 0.58 0.54 0.52 0.50 0.48 0.46 0.46
1.35 1.35 1.35 1.37 1.37 1.37 1.37 1.37 1.35 1.33 1.33 1.33 1.35 1.35 1.35 1.33 1.29 1.27 1.27 1.29 1.33 1.37 1.43 1.48 1.50 1.50 1.50 1.50 1.50 1.50 1.48 1.50 1.48 1.48 1.46 1.44 1.35 1.29 1.23 1.15 1.09 1.03 0.97 0.91 0.87 0.83 0.82 0.80 0.78 0.78 0.76 0.74 0.72 0.72 0.70 0.68 0.66 0.66 0.64 0.64 0.64 0.62 0.60 0.56 0.54 0.52 0.50 0.48 0.46
1.33 1.33 1.35 1.37 1.35 1.35 1.35 1.37 1.37 1.35 1.35 1.33 1.33 1.33 1.31 1.33 1.29 1.27 1.25 1.27 1.33 1.37 1.43 1.48 1.50 1.50 1.52 1.52 1.52 1.50 1.48 1.46 1.46 1.46 1.44 1.43 1.37 1.27 1.17 1.11 1.03 0.97 0.91 0.87 0.83 0.82 0.80 0.78 0.76 0.76 0.74 0.72 0.72 0.70 0.70 0.68 0.66 0.66 0.64 0.64 0.64 0.62 0.60 0.56 0.56 0.54 0.52 0.50 0.48
1.35 1.35 1.35 1.35 1.35 1.35 1.35 1.35 1.35 1.35 1.33 1.33 1.31 1.31 1.31 1.31 1.29 1.27 1.27 1.29 1.31 1.35 1.41 1.46 1.52 1.54 1.54 1.54 1.54 1.52 1.50 1.44 1.44 1.43 1.41 1.39 1.33 1.23 1.11 1.05 0.99 0.93 0.89 0.85 0.82 0.80 0.78 0.76 0.74 0.74 0.72 0.70 0.70 0.68 0.68 0.68 0.66 0.66 0.64 0.64 0.62 0.62 0.60 0.58 0.56 0.56 0.54 0.52 0.48
1.33 1.33 1.35 1.35 1.35 1.35 1.35 1.35 1.35 1.33 1.31 1.31 1.31 1.31 1.31 1.31 1.29 1.29 1.29 1.27 1.31 1.35 1.39 1.44 1.52 1.54 1.54 1.54 1.54 1.52 1.50 1.44 1.43 1.39 1.37 1.33 1.25 1.17 1.07 0.99 0.93 0.89 0.85 0.83 0.80 0.78 0.76 0.74 0.72 0.72 0.70 0.68 0.68 0.68 0.68 0.66 0.66 0.64 0.64 0.64 0.62 0.62 0.60 0.58 0.58 0.56 0.56 0.58 0.50
1.33 1.33 1.33 1.33 1.33 1.33 1.33 1.33 1.33 1.33 1.31 1.31 1.31 1.31 1.31 1.31 1.29 1.31 1.31 1.31 1.33 1.35 1.37 1.43 1.50 1.52 1.52 1.52 1.52 1.52 1.48 1.43 1.39 1.35 1.31 1.25 1.19 1.13 1.07 0.95 0.91 0.87 0.83 0.82 0.80 0.76 0.74 0.72 0.70 0.68 0.68 0.68 0.66 0.66 0.66 0.66 0.64 0.64 0.64 0.64 0.62 0.60 0.58 0.58 0.58 0.58 0.58 0.58 0.54
1.31 1.33 1.33 1.33 1.33 1.33 1.33 1.31 1.31 1.31 1.31 1.29 1.31 1.31 1.31 1.31 1.31 1.33 1.33 1.35 1.33 1.35 1.37 1.43 1.48 1.52 1.52 1.52 1.50 1.48 1.46 1.44 1.35 1.29 1.25 1.19 1.13 1.09 1.03 0.95 0.89 0.85 0.83 0.80 0.78 0.76 0.74 0.70 0.68 0.66 0.66 0.66 0.66 0.66 0.64 0.64 0.64 0.64 0.62 0.64 0.62 0.60 0.58 0.58 0.60 0.60 0.58 0.58 0.56
1.29 1.31 1.33 1.33 1.33 1.33 1.33 1.31 1.31 1.31 1.31 1.31 1.31 1.31 1.33 1.33 1.35 1.35 1.35 1.35 1.35 1.37 1.41 1.46 1.50 1.50 1.50 1.48 1.46 1.44 1.41 1.39 1.31 1.25 1.21 1.15 1.11 1.07 1.03 0.99 0.93 0.87 0.83 0.82 0.78 0.76 0.72 0.68 0.66 0.64 0.64 0.64 0.64 0.64 0.64 0.64 0.62 0.62 0.62 0.62 0.62 0.62 0.60 0.60 0.60 0.60 0.60 0.58 0.58
1.27 1.31 1.33 1.33 1.33 1.33 1.31 1.31 1.31 1.31 1.31 1.31 1.31 1.33 1.35 1.37 1.39 1.39 1.39 1.39 1.39 1.43 1.44 1.48 1.50 1.50 1.48 1.46 1.43 1.41 1.37 1.35 1.29 1.23 1.19 1.15 1.11 1.07 1.03 1.01 0.95 0.89 0.85 0.82 0.80 0.76 0.72 0.70 0.66 0.64 0.64 0.64 0.64 0.64 0.62 0.62 0.62 0.60 0.60 0.60 0.60 0.60 0.60 0.60 0.62 0.60 0.60 0.60 0.60
1.27 1.29 1.31 1.33 1.33 1.33 1.31 1.31 1.31 1.31 1.31 1.31 1.33 1.35 1.37 1.39 1.41 1.41 1.43 1.43 1.44 1.44 1.46 1.48 1.48 1.48 1.44 1.43 1.41 1.39 1.35 1.33 1.29 1.25 1.19 1.15 1.11 1.07 1.05 1.01 0.97 0.91 0.85 0.82 0.80 0.76 0.72 0.70 0.68 0.64 0.62 0.62 0.62 0.62 0.62 0.62 0.62 0.60 0.60 0.60 0.60 0.60 0.60 0.60 0.62 0.60 0.60 0.60 0.60
1.27 1.27 1.29 1.29 1.31 1.31 1.31 1.31 1.31 1.31 1.31 1.33 1.35 1.37 1.37 1.39 1.41 1.43 1.44 1.44 1.44 1.44 1.46 1.46 1.46 1.44 1.43 1.41 1.39 1.37 1.35 1.33 1.29 1.25 1.19 1.15 1.11 1.07 1.05 1.01 0.97 0.91 0.85 0.82 0.78 0.74 0.72 0.70 0.68 0.66 0.64 0.62 0.60 0.62 0.62 0.64 0.64 0.62 0.60 0.60 0.60 0.60 0.60 0.60 0.60 0.60 0.60 0.60 0.60
1.25 1.25 1.27 1.29 1.29 1.29 1.31 1.31 1.31 1.31 1.33 1.35 1.35 1.37 1.39 1.39 1.41 1.43 1.43 1.43 1.44 1.44 1.44 1.44 1.44 1.43 1.41 1.39 1.37 1.35 1.33 1.33 1.31 1.27 1.21 1.15 1.11 1.07 1.05 1.01 0.97 0.91 0.85 0.80 0.76 0.74 0.72 0.70 0.68 0.66 0.64 0.62 0.62 0.64 0.66 0.66 0.64 0.64 0.64 0.62 0.62 0.60 0.60 0.60 0.60 0.60 0.58 0.60 0.60
1.23 1.25 1.25 1.27 1.27 1.27 1.29 1.29 1.31 1.33 1.35 1.35 1.37 1.39 1.39 1.41 1.41 1.43 1.43 1.43 1.43 1.43 1.43 1.43 1.44 1.43 1.39 1.37 1.35 1.35 1.33 1.33 1.31 1.29 1.23 1.15 1.11 1.07 1.05 1.01 0.97 0.93 0.87 0.78 0.74 0.72 0.70 0.70 0.68 0.66 0.66 0.64 0.64 0.66 0.68 0.68 0.68 0.66 0.66 0.64 0.64 0.62 0.62 0.60 0.60 0.60 0.60 0.60 0.60
1.23 1.23 1.25 1.25 1.25 1.27 1.27 1.29 1.31 1.33 1.35 1.37 1.37 1.39 1.41 1.41 1.41 1.43 1.43 1.43 1.43 1.43 1.43 1.43 1.43 1.43 1.39 1.35 1.35 1.33 1.33 1.33 1.31 1.29 1.25 1.17 1.13 1.09 1.05 1.01 0.97 0.93 0.89 0.82 0.76 0.72 0.70 0.68 0.68 0.68 0.66 0.66 0.68 0.70 0.72 0.70 0.70 0.68 0.68 0.68 0.68 0.66 0.64 0.62 0.62 0.62 0.62 0.62 0.62
1.21 1.23 1.23 1.23 1.25 1.25 1.27 1.27 1.29 1.33 1.35 1.37 1.39 1.39 1.41 1.41 1.41 1.41 1.43 1.43 1.43 1.43 1.41 1.41 1.41 1.41 1.39 1.33 1.33 1.33 1.33 1.33 1.31 1.29 1.27 1.21 1.13 1.09 1.05 1.01 0.97 0.95 0.91 0.85 0.80 0.76 0.72 0.70 0.68 0.68 0.68 0.68 0.72 0.72 0.72 0.72 0.72 0.70 0.70 0.70 0.70 0.70 0.70 0.70 0.68 0.66 0.66 0.64 0.66
1.19 1.21 1.21 1.23 1.23 1.25 1.25 1.27 1.29 1.31 1.35 1.37 1.39 1.39 1.39 1.41 1.41 1.41 1.41 1.41 1.41 1.41 1.41 1.39 1.39 1.39 1.37 1.33 1.33 1.33 1.31 1.31 1.31 1.29 1.25 1.21 1.15 1.09 1.05 1.03 0.99 0.95 0.93 0.89 0.85 0.80 0.74 0.72 0.70 0.70 0.70 0.70 0.72 0.74 0.74 0.72 0.72 0.72 0.72 0.72 0.72 0.72 0.74 0.76 0.74 0.72 0.70 0.70 0.72
1.17 1.19 1.21 1.23 1.23 1.25 1.25 1.27 1.29 1.31 1.33 1.33 1.35 1.37 1.39 1.39 1.39 1.39 1.39 1.41 1.41 1.41 1.39 1.39 1.39 1.37 1.37 1.35 1.33 1.31 1.31 1.31 1.29 1.27 1.23 1.19 1.15 1.11 1.07 1.05 1.01 0.99 0.95 0.93 0.89 0.85 0.80 0.76 0.74 0.72 0.72 0.74 0.74 0.74 0.74 0.72 0.72 0.72 0.72 0.72 0.74 0.74 0.76 0.78 0.78 0.76 0.74 0.74 0.76
1.17 1.19 1.21 1.21 1.23 1.23 1.25 1.27 1.29 1.29 1.31 1.33 1.33 1.35 1.37 1.39 1.39 1.39 1.39 1.41 1.39 1.39 1.39 1.37 1.37 1.37 1.37 1.35 1.31 1.29 1.29 1.29 1.25 1.23 1.19 1.17 1.15 1.13 1.11 1.07 1.05 1.01 0.99 0.95 0.93 0.89 0.85 0.78 0.76 0.76 0.76 0.76 0.76 0.76 0.74 0.72 0.72 0.72 0.72 0.74 0.74 0.76 0.78 0.80 0.80 0.78 0.78 0.78 0.82
1.17 1.19 1.19 1.21 1.23 1.23 1.25 1.25 1.27 1.29 1.29 1.31 1.31 1.33 1.33 1.35 1.37 1.39 1.39 1.39 1.39 1.39 1.37 1.37 1.37 1.37 1.37 1.35 1.33 1.29 1.27 1.25 1.21 1.21 1.19 1.19 1.19 1.17 1.13 1.11 1.07 1.05 1.01 0.99 0.97 0.93 0.89 0.85 0.80 0.78 0.78 0.78 0.76 0.76 0.74 0.74 0.72 0.72 0.74 0.74 0.76 0.78 0.80 0.82 0.82 0.80 0.80 0.82 0.83
1.15 1.17 1.19 1.19 1.21 1.21 1.23 1.23 1.25 1.25 1.27 1.27 1.29 1.29 1.31 1.31 1.35 1.37 1.37 1.39 1.37 1.37 1.37 1.37 1.37 1.37 1.37 1.35 1.33 1.29 1.25 1.23 1.21 1.21 1.21 1.21 1.21 1.19 1.17 1.13 1.11 1.07 1.05 1.03 1.01 0.97 0.95 0.89 0.85 0.82 0.80 0.78 0.78 0.76 0.76 0.76 0.74 0.74 0.74 0.74 0.76 0.78 0.80 0.80 0.82 0.82 0.82 0.83 0.85
1.13 1.15 1.15 1.17 1.19 1.19 1.19 1.21 1.21 1.23 1.23 1.25 1.27 1.27 1.29 1.29 1.31 1.33 1.35 1.35 1.37 1.37 1.37 1.37 1.37 1.37 1.37 1.35 1.33 1.29 1.25 1.23 1.23 1.23 1.23 1.23 1.23 1.21 1.19 1.17 1.13 1.09 1.07 1.05 1.03 1.01 0.97 0.93 0.89 0.85 0.82 0.78 0.78 0.78 0.78 0.78 0.76 0.76 0.76 0.76 0.76 0.78 0.78 0.80 0.80 0.82 0.83 0.87 0.89
1.09 1.11 1.13 1.15 1.15 1.17 1.17 1.17 1.19 1.21 1.21 1.23 1.25 1.27 1.27 1.27 1.29 1.29 1.31 1.33 1.35 1.35 1.37 1.37 1.37 1.37 1.37 1.35 1.31 1.27 1.23 1.23 1.25 1.25 1.25 1.23 1.23 1.23 1.21 1.19 1.13 1.09 1.07 1.05 1.03 1.01 0.97 0.95 0.91 0.87 0.83 0.78 0.78 0.78 0.78 0.78 0.78 0.78 0.76 0.76 0.76 0.76 0.76 0.78 0.80 0.83 0.85 0.89 0.93
1.05 1.07 1.09 1.11 1.13 1.13 1.15 1.15 1.17 1.19 1.19 1.21 1.21 1.23 1.25 1.27 1.27 1.29 1.29 1.31 1.33 1.33 1.35 1.35 1.35 1.35 1.35 1.31 1.29 1.25 1.23 1.21 1.23 1.23 1.23 1.23 1.23 1.23 1.23 1.21 1.17 1.11 1.05 1.03 1.01 0.99 0.97 0.95 0.91 0.89 0.85 0.82 0.80 0.80 0.78 0.78 0.78 0.78 0.78 0.76 0.76 0.76 0.76 0.76 0.80 0.83 0.87 0.91 0.95
0.99 1.03 1.05 1.09 1.09 1.11 1.11 1.13 1.15 1.15 1.17 1.17 1.19 1.19 1.21 1.23 1.25 1.25 1.27 1.27 1.31 1.33 1.33 1.33 1.33 1.31 1.29 1.27 1.25 1.23 1.21 1.19 1.19 1.19 1.19 1.19 1.19 1.19 1.19 1.17 1.13 1.09 1.07 1.03 1.01 0.99 0.97 0.95 0.93 0.89 0.87 0.85 0.83 0.80 0.80 0.78 0.78 0.78 0.76 0.76 0.76 0.76 0.76 0.76 0.78 0.83 0.89 0.93 0.99
0.93 0.97 1.01 1.03 1.05 1.07 1.09 1.11 1.11 1.13 1.13 1.15 1.17 1.17 1.19 1.19 1.19 1.21 1.23 1.25 1.27 1.29 1.29 1.29 1.29 1.27 1.23 1.21 1.21 1.21 1.19 1.17 1.15 1.15 1.13 1.13 1.11 1.11 1.11 1.09 1.07 1.05 1.05 1.01 0.99 0.97 0.97 0.95 0.93 0.91 0.89 0.87 0.83 0.82 0.80 0.78 0.78 0.76 0.76 0.76 0.76 0.76 0.76 0.78 0.82 0.83 0.87 0.91 0.99
0.82 0.87 0.95 0.97 1.01 1.03 1.05 1.07 1.09 1.11 1.13 1.13 1.15 1.15 1.15 1.17 1.17 1.17 1.19 1.19 1.23 1.25 1.25 1.27 1.25 1.23 1.21 1.17 1.17 1.15 1.15 1.15 1.11 1.09 1.05 1.03 1.03 1.01 1.01 1.03 1.03 1.03 1.03 1.03 0.99 0.97 0.97 0.95 0.95 0.93 0.91 0.89 0.85 0.83 0.82 0.82 0.78 0.78 0.78 0.78 0.76 0.78 0.80 0.82 0.85 0.89 0.93 0.95 0.97
0.74 0.80 0.83 0.87 0.95 0.99 1.01 1.05 1.07 1.09 1.11 1.13 1.13 1.13 1.13 1.13 1.15 1.15 1.15 1.15 1.17 1.21 1.23 1.23 1.23 1.21 1.19 1.17 1.15 1.13 1.11 1.11 1.09 1.05 1.01 0.99 0.97 0.97 0.99 0.99 0.99 1.01 1.01 1.01 0.99 0.99 0.97 0.95 0.95 0.93 0.93 0.91 0.89 0.87 0.85 0.83 0.82 0.80 0.78 0.80 0.80 0.82 0.83 0.87 0.91 0.93 0.97 0.99 0.99
0.66 0.72 0.76 0.82 0.85 0.89 0.95 0.99 1.05 1.07 1.09 1.09 1.11 1.11 1.11 1.11 1.11 1.13 1.15 1.15 1.17 1.17 1.17 1.19 1.19 1.19 1.19 1.17 1.15 1.13 1.11 1.11 1.09 1.07 1.05 1.03 1.01 1.01 0.99 0.99 0.99 0.99 0.99 0.99 0.99 0.99 0.97 0.95 0.95 0.95 0.93 0.93 0.91 0.89 0.87 0.85 0.83 0.83 0.83 0.83 0.85 0.87 0.89 0.93 0.95 0.97 0.99 1.01 1.01
0.56 0.62 0.68 0.74 0.80 0.83 0.89 0.95 1.01 1.03 1.05 1.05 1.07 1.07 1.09 1.09 1.11 1.13 1.13 1.15 1.15 1.15 1.15 1.15 1.15 1.17 1.17 1.17 1.15 1.13 1.13 1.11 1.11 1.13 1.11 1.09 1.07 1.05 1.03 1.01 1.01 1.01 1.01 1.01 0.99 0.99 0.99 0.97 0.95 0.95 0.95 0.95 0.93 0.91 0.89 0.87 0.87 0.85 0.87 0.87 0.87 0.91 0.95 0.97 0.99 1.01 1.01 1.01 1.03
0.48 0.54 0.60 0.66 0.72 0.78 0.83 0.89 0.97 1.01 1.01 1.03 1.05 1.05 1.07 1.09 1.09 1.11 1.11 1.13 1.15 1.15 1.15 1.15 1.15 1.17 1.17 1.19 1.17 1.17 1.15 1.15 1.15 1.17 1.17 1.15 1.13 1.11 1.07 1.05 1.05 1.03 1.03 1.05 1.03 1.01 1.01 0.99 0.97 0.95 0.95 0.95 0.95 0.93 0.91 0.89 0.87 0.87 0.89 0.89 0.93 0.95 0.97 1.01 1.01 1.03 1.03 1.03 1.05
0.40 0.46 0.52 0.58 0.64 0.70 0.76 0.82 0.91 0.97 0.99 1.01 1.01 1.03 1.05 1.07 1.09 1.09 1.11 1.13 1.15 1.15 1.15 1.15 1.17 1.17 1.19 1.19 1.21 1.19 1.19 1.17 1.17 1.17 1.19 1.19 1.17 1.15 1.13 1.11 1.09 1.09 1.09 1.09 1.07 1.05 1.03 1.01 1.01 0.99 0.97 0.95 0.95 0.93 0.91 0.89 0.89 0.91 0.91 0.93 0.95 0.97 0.99 1.01 1.01 1.03 1.05 1.07 1.07
0.34 0.38 0.44 0.50 0.56 0.64 0.70 0.78 0.85 0.91 0.95 0.97 0.99 1.01 1.03 1.05 1.07 1.09 1.11 1.13 1.13 1.13 1.15 1.15 1.17 1.17 1.17 1.17 1.19 1.19 1.19 1.19 1.17 1.17 1.19 1.21 1.19 1.19 1.17 1.15 1.15 1.17 1.17 1.15 1.13 1.09 1.07 1.05 1.03 1.01 1.01 0.97 0.95 0.95 0.93 0.91 0.93 0.93 0.95 0.95 0.97 0.99 0.99 1.01 1.03 1.05 1.07 1.11 1.09
0.28 0.32 0.38 0.42 0.50 0.56 0.64 0.76 0.80 0.85 0.89 0.95 0.97 0.99 1.01 1.03 1.05 1.07 1.09 1.11 1.11 1.11 1.13 1.15 1.15 1.15 1.15 1.17 1.17 1.19 1.21 1.21 1.19 1.19 1.19 1.19 1.21 1.21 1.19 1.19 1.19 1.21 1.21 1.19 1.17 1.15 1.13 1.11 1.09 1.07 1.03 1.01 0.99 0.97 0.93 0.93 0.95 0.95 0.97 0.97 0.99 0.99 1.01 1.03 1.05 1.07 1.09 1.11 1.11
0.24 0.28 0.32 0.36 0.42 0.48 0.56 0.70 0.74 0.80 0.83 0.89 0.95 0.97 1.01 1.03 1.05 1.05 1.07 1.09 1.09 1.09 1.11 1.13 1.15 1.15 1.17 1.17 1.17 1.19 1.21 1.21 1.21 1.21 1.19 1.19 1.19 1.21 1.21 1.21 1.23 1.25 1.23 1.23 1.19 1.17 1.15 1.13 1.11 1.09 1.07 1.05 1.01 0.99 0.97 0.99 0.97 0.97 0.97 0.99 1.01 1.03 1.05 1.07 1.09 1.09 1.11 1.11 1.11
0.22 0.24 0.28 0.32 0.36 0.42 0.50 0.62 0.68 0.74 0.80 0.85 0.89 0.95 0.97 1.01 1.03 1.05 1.07 1.09 1.09 1.09 1.11 1.11 1.13 1.15 1.17 1.17 1.19 1.19 1.21 1.23 1.23 1.23 1.21 1.21 1.21 1.21 1.23 1.23 1.25 1.25 1.25 1.23 1.21 1.19 1.17 1.15 1.15 1.13 1.11 1.07 1.05 1.03 1.03 1.03 1.01 1.01 1.01 1.01 1.03 1.05 1.07 1.09 1.11 1.11 1.11 1.11 1.11
0.22 0.22 0.24 0.28 0.32 0.36 0.44 0.56 0.62 0.68 0.74 0.80 0.85 0.89 0.93 0.97 1.01 1.03 1.05 1.07 1.09 1.09 1.09 1.11 1.13 1.15 1.17 1.17 1.19 1.19 1.21 1.23 1.23 1.25 1.23 1.23 1.23 1.23 1.25 1.25 1.25 1.25 1.25 1.23 1.21 1.19 1.17 1.15 1.15 1.15 1.13 1.11 1.09 1.09 1.09 1.07 1.05 1.03 1.03 1.03 1.03 1.05 1.07 1.09 1.11 1.11 1.09 1.11 1.11
0.22 0.22 0.24 0.24 0.28 0.32 0.38 0.50 0.56 0.64 0.70 0.74 0.80 0.85 0.91 0.95 0.97 1.01 1.03 1.05 1.07 1.07 1.09 1.09 1.13 1.15 1.15 1.17 1.17 1.19 1.19 1.21 1.23 1.25 1.25 1.25 1.25 1.25 1.27 1.27 1.27 1.27 1.25 1.25 1.21 1.19 1.17 1.17 1.15 1.15 1.13 1.13 1.13 1.13 1.11 1.11 1.07 1.05 1.05 1.05 1.05 1.05 1.07 1.09 1.09 1.09 1.09 1.09 1.09
Wind_Speed
16 18 20 23 24 25 25 25 25 24 24 23 23 23 23 23 23 26 29 31 32 32 31 30 30 30 29 29 29 29 30 31 30 30 30 29 29 29 29 29 29 30 30 30 30 29 29 29 28 28 28 27 27 27 27 27 27 27 27 27 27 27 27 27 27 27 27 27 27
15 16 18 21 23 24 25 26 26 26 25 23 23 23 23 23 24 26 29 31 32 31 31 30 30 30 30 29 28 29 30 30 30 30 30 30 29 29 28 28 29 29 30 30 30 29 29 29 28 28 27 27 27 27 27 27 27 27 27 27 27 26 26 26 27 27 27 27 27
15 15 16 18 20 22 24 25 26 27 26 24 24 24 23 23 24 26 28 30 31 32 31 30 30 30 30 29 28 28 29 29 30 30 30 30 29 28 28 28 28 29 29 29 29 29 29 29 28 28 28 27 27 27 27 27 27 27 27 27 27 26 26 26 26 26 26 27 27
15 15 16 17 19 21 23 24 25 26 26 25 25 24 24 24 25 26 27 29 31 31 31 31 31 31 30 30 29 28 28 29 29 30 30 30 29 28 28 28 28 29 29 29 29 29 29 29 28 28 28 27 27 27 27 27 27 27 27 27 26 26 26 26 26 26 26 26 26
14 15 16 17 18 20 21 23 24 25 25 25 25 25 25 25 25 25 26 28 30 31 32 32 31 31 31 30 29 29 28 28 29 30 30 29 29 29 28 28 28 29 29 29 29 29 29 29 28 28 27 27 27 27 27 27 27 27 27 26 26 26 26 26 25 25 26 26 26
13 14 15 16 17 19 20 21 23 24 24 24 25 25 25 25 25 24 25 26 28 30 31 32 32 31 31 30 30 29 29 29 29 30 30 30 29 29 29 29 28 28 29 29 29 29 29 29 28 27 27 27 27 27 27 27 27 27 27 26 26 26 26 26 26 26 26 26 26
11 12 13 15 16 18 19 20 21 22 23 24 24 25 25 25 25 25 24 25 27 29 30 31 31 31 31 31 31 30 29 29 29 30 30 30 29 29 29 29 28 28 28 29 29 29 28 28 27 27 27 27 27 27 27 27 27 27 27 26 26 26 26 26 26 26 26 26 26
8 10 12 13 14 16 18 19 20 21 22 22 24 25 25 26 26 25 25 25 26 27 29 30 30 31 31 31 31 31 30 29 29 30 30 30 29 29 29 29 28 28 28 28 28 28 28 27 27 27 27 27 27 27 27 27 27 27 27 27 26 26 26 26 26 26 26 27 27
7 9 10 12 13 15 16 18 19 19 20 21 22 24 25 25 26 25 25 25 26 27 28 29 29 30 31 32 32 32 30 29 29 30 30 29 29 29 29 28 28 28 28 28 28 28 28 27 27 27 27 27 27 27 27 27 27 27 27 27 27 27 27 27 27 27 27 27 27
6 8 10 11 12 13 15 16 18 18 19 20 21 23 24 25 25 25 25 25 25 26 27 28 29 30 32 32 33 32 31 30 30 30 30 29 29 29 28 27 27 27 27 27 28 28 28 27 27 27 27 27 27 27 27 27 27 27 27 27 27 27 27 27 27 27 27 27 27
4 7 9 11 12 13 14 16 17 18 19 19 20 22 23 24 24 25 24 24 24 26 27 28 30 31 32 32 32 31 31 31 31 30 30 29 29 28 28 27 27 27 27 27 27 28 28 27 27 27 27 27 27 27 27 27 27 27 27 27 27 27 27 27 27 27 27 27 27
3 4 7 10 11 12 13 15 16 17 19 19 20 21 22 23 24 24 24 23 23 25 26 28 29 31 31 32 31 31 31 31 30 30 30 29 29 28 28 27 28 28 28 28 28 27 27 27 27 27 27 27 27 27 27 27 27 27 27 27 27 28 28 28 28 27 27 27 27
4 3 4 8 10 11 12 13 15 17 19 20 20 21 21 22 23 23 23 23 23 23 25 27 28 29 30 31 31 31 30 30 30 29 29 29 29 29 28 28 28 28 28 28 28 28 27 28 28 28 28 28 27 27 27 28 28 28 28 28 28 28 28 28 28 28 28 27 27
5 3 3 5 8 9 10 11 13 16 18 19 20 20 20 21 22 22 22 22 22 22 23 25 27 28 29 31 31 31 30 29 29 29 29 29 29 29 29 29 29 29 28 28 28 28 28 28 28 28 28 28 28 28 28 28 28 28 28 28 28 28 28 28 28 28 28 28 27
5 4 3 3 5 7 8 9 11 14 16 18 19 19 19 19 20 21 21 21 21 21 22 24 26 27 29 30 31 31 30 28 28 28 28 29 29 29 29 29 29 29 28 28 28 28 28 28 28 28 28 28 28 28 28 28 28 28 28 28 28 28 28 28 28 28 28 28 28
5 4 4 3 3 4 5 8 10 12 15 17 18 18 18 18 19 19 20 20 20 21 22 24 25 26 28 30 31 30 29 28 27 27 28 28 29 29 29 29 29 29 28 28 28 28 28 28 28 29 29 29 28 28 28 28 28 28 28 28 28 28 28 28 28 28 28 28 28
6 5 5 4 4 3 4 5 8 11 13 15 17 17 18 18 18 19 19 19 20 21 22 24 25 26 27 29 30 30 29 28 27 27 27 28 29 29 29 29 29 29 28 28 28 28 28 28 28 29 29 29 29 28 28 29 28 28 28 28 28 28 28 28 28 28 28 28 28
7 6 6 5 5 4 4 4 6 8 11 13 15 16 17 18 18 19 19 19 20 21 22 23 24 25 26 28 29 29 29 28 28 28 28 28 28 28 28 28 28 28 28 28 28 28 28 28 29 29 29 29 29 29 29 29 29 28 28 28 28 28 28 28 28 28 28 28 28
7 6 6 5 5 5 5 5 5 6 9 11 13 15 16 17 18 19 19 19 20 21 21 22 23 24 25 26 28 29 29 29 28 28 28 28 28 28 28 28 28 28 28 28 28 28 28 29 29 29 29 29 29 29 29 29 28 28 28 27 27 27 27 26 27 27 28 28 28
6 6 5 5 5 5 5 5 5 6 7 9 11 13 15 16 17 18 18 19 19 20 20 21 22 23 24 26 27 28 28 28 29 29 29 29 28 28 27 27 27 27 27 27 27 28 28 28 29 29 29 29 29 29 28 28 28 27 27 26 26 26 25 25 25 26 27 27 27
6 5 4 4 4 4 4 5 5 6 6 7 9 11 13 15 16 17 17 18 18 19 20 20 21 23 24 25 26 27 27 28 29 29 29 29 28 28 27 27 26 26 26 27 27 27 28 28 29 29 29 29 29 28 28 28 27 27 26 26 25 25 25 24 25 25 26 26 26
6 5 4 2 2 2 2 3 3 4 5 6 7 9 11 13 15 16 17 17 17 18 19 20 21 23 24 25 26 26 27 27 28 29 29 28 28 27 27 26 26 26 26 26 27 27 27 28 28 28 28 28 28 28 28 27 27 26 26 25 25 25 25 24 25 25 26 26 26
7 6 4 3 2 1 0 1 1 2 4 5 6 8 9 11 13 15 15 16 17 18 19 20 22 23 24 25 26 26 27 27 28 28 28 28 27 27 27 26 26 26 26 26 26 27 27 27 28 28 28 28 28 28 27 27 26 26 25 25 25 25 25 25 25 25 26 26 26
6 6 5 4 3 3 3 3 3 3 4 5 6 7 8 10 12 13 14 15 16 18 19 20 21 23 24 24 25 25 26 26 26 27 27 27 27 27 27 26 26 26 26 26 26 26 27 27 27 27 27 27 27 27 27 26 26 26 26 25 25 25 25 25 25 26 26 26 26
6 6 5 4 4 4 4 5 5 6 6 6 7 7 8 9 10 12 14 16 17 18 19 20 21 21 22 23 23 24 24 24 25 25 26 26 26 26 26 26 26 26 26 26 26 26 26 26 26 26 26 26 26 26 26 26 26 26 26 26 25 25 25 26 26 26 26 26 26
5 5 5 5 5 5 5 5 6 6 7 7 8 8 8 8 9 11 13 15 17 19 19 20 20 20 21 21 22 23 23 23 24 24 25 25 25 25 26 26 26 26 26 26 27 27 27 26 26 26 25 25 25 25 25 25 26 26 26 26 26 26 26 26 26 27 26 26 26
5 5 6 6 6 6 6 6 7 7 7 8 9 9 10 10 10 11 12 14 17 19 20 20 20 20 21 21 22 22 23 23 23 24 24 24 24 25 26 26 26 26 27 27 27 27 27 26 26 25 25 25 25 25 25 25 26 26 26 26 26 26 27 27 27 27 27 26 26
5 5 6 6 7 7 8 8 8 8 8 9 9 10 11 11 12 12 13 14 16 18 20 21 21 21 21 21 22 22 23 23 23 23 24 24 24 25 25 25 25 25 26 27 27 28 27 27 26 26 25 25 25 25 25 25 26 26 26 26 27 27 27 28 28 28 27 26 25
6 6 6 7 7 8 8 9 9 9 9 10 10 10 11 12 13 14 14 15 16 18 20 22 22 22 22 22 22 22 23 23 23 23 24 24 24 24 24 23 23 24 25 26 27 27 27 27 27 26 26 25 25 25 25 26 26 26 27 27 27 28 28 28 28 28 27 26 25
7 7 7 7 8 8 9 9 10 10 10 10 10 10 11 12 13 14 15 16 17 18 20 21 22 23 23 23 22 22 22 23 23 23 23 23 24 23 23 23 22 23 23 24 25 26 26 27 26 26 26 26 25 25 26 26 26 27 27 27 28 29 29 29 29 28 26 25 25
9 9 8 9 9 9 9 10 10 10 10 10 11 11 11 11 12 13 14 16 17 18 19 20 22 23 23 23 22 22 22 22 22 22 23 23 23 23 23 23 23 23 23 23 24 24 25 25 26 26 26 26 26 25 25 25 26 26 27 28 29 29 30 29 28 27 26 25 25
10 10 10 10 10 10 10 10 10 11 11 11 11 12 12 12 12 13 14 15 16 17 18 19 20 21 22 22 22 22 22 22 22 22 22 23 23 24 24 24 24 24 24 24 24 24 25 25 25 26 26 26 26 25 25 25 25 26 27 27 28 29 29 28 28 27 26 26 25
12 11 11 11 11 11 11 10 10 10 11 12 12 13 13 13 13 13 13 14 15 16 16 17 18 19 21 22 22 22 22 23 23 23 23 23 24 24 25 25 25 25 25 25 25 26 26 26 26 26 26 26 26 25 25 25 25 25 26 27 28 28 28 28 27 27 26 26 25
14 13 12 12 12 12 12 12 11 11 11 11 12 13 13 14 14 14 14 14 15 15 16 17 17 18 19 21 22 23 23 23 24 24 24 24 24 25 25 25 25 25 25 26 26 26 27 27 27 27 27 27 26 25 24 24 24 25 26 26 27 28 28 28 27 27 26 26 25
17 16 15 14 13 13 13 13 13 12 12 11 11 12 13 14 15 15 15 15 15 16 17 17 18 18 19 20 21 23 23 24 24 24 25 25 25 25 25 25 25 25 25 26 26 27 27 27 27 27 27 26 25 25 24 24 25 25 26 27 27 28 28 28 27 27 26 26 25
17 17 17 16 15 14 14 14 14 14 13 13 12 12 12 13 15 15 16 16 16 17 17 18 18 19 19 20 21 22 23 24 24 25 25 24 24 24 24 24 24 24 24 25 25 26 26 26 26 26 26 25 25 24 24 24 25 25 26 27 28 28 28 28 27 26 26 26 25
17 18 18 18 17 16 15 15 15 15 15 14 13 13 12 13 14 15 16 16 17 17 18 19 19 20 20 20 21 22 23 24 24 25 25 24 24 24 24 23 23 23 23 24 24 24 25 25 25 25 25 24 24 24 24 24 25 26 27 27 28 28 28 27 26 26 26 25 25
18 18 18 19 18 18 16 16 15 16 16 16 15 14 14 13 14 14 16 16 17 18 18 19 20 20 21 21 21 22 22 23 24 25 25 25 24 24 23 23 22 22 22 22 23 23 23 24 24 24 24 24 24 24 24 24 25 26 27 27 27 27 27 26 25 25 25 25 25
18 18 18 19 19 19 18 17 16 16 16 16 16 16 16 15 14 14 15 16 17 18 19 19 20 21 21 22 22 22 22 23 24 25 25 25 24 23 23 22 22 22 22 22 22 22 22 22 22 23 23 23 23 23 24 24 25 26 26 26 26 26 25 25 25 24 24 24 24
18 18 18 19 19 19 19 18 17 16 16 17 17 17 17 17 16 16 15 16 16 17 18 19 20 21 21 22 22 22 23 23 24 24 25 25 24 23 22 22 21 22 22 22 22 22 22 22 22 22 22 22 22 23 23 24 25 25 25 25 25 25 24 24 24 24 24 24 24
18 19 19 19 19 19 19 19 18 17 16 17 17 18 18 18 18 18 17 17 16 17 17 19 19 20 21 21 22 22 23 23 23 24 24 24 23 22 22 22 22 22 23 23 22 22 22 21 21 22 22 22 22 22 23 23 24 24 24 24 24 24 23 23 23 23 23 23 24
Wind_Direction
166 165 167 171 175 178 182 186 187 186 185 183 182 182 183 183 185 188 190 192 192 193 194 196 196 197 198 199 199 200 201 202 204 206 207 207 206 205 204 204 205 206 207 208 208 209 210 210 212 213 214 214 215 215 216 217 217 218 219 220 221 222 223 223 224 225 225 226 228
176 174 173 173 175 179 183 188 191 192 192 190 188 187 187 187 188 190 193 195 196 197 197 198 197 197 198 199 199 199 200 201 203 206 207 206 206 205 205 205 206 207 207 208 208 209 210 211 212 213 213 214 214 215 216 217 217 218 219 219 221 222 223 224 225 225 225 226 228
186 184 182 180 179 179 181 186 189 191 191 192 192 192 192 192 192 194 196 199 200 201 202 201 199 199 199 199 200 200 200 201 203 205 206 206 205 205 206 206 207 207 208 208 208 209 210 211 212 213 213 214 214 215 216 217 217 218 219 220 221 222 223 224 224 225 226 227 227
189 190 189 187 184 182 182 184 186 188 189 191 193 195 195 196 197 199 201 203 204 206 206 204 202 201 201 201 201 200 200 201 202 204 205 205 205 205 206 207 207 207 208 208 208 209 210 211 212 212 213 213 214 215 216 217 217 218 219 220 221 222 223 224 224 225 226 227 228
186 189 190 190 188 186 186 186 187 189 190 192 194 196 198 199 201 202 204 206 208 208 208 206 204 203 203 203 201 201 200 201 202 203 204 204 205 206 207 207 208 208 208 208 208 209 210 210 211 212 213 213 214 215 216 217 217 218 220 221 222 222 223 224 224 225 226 227 228
185 189 191 192 191 190 189 189 190 192 194 195 196 198 200 201 203 205 207 208 209 209 208 207 206 206 205 204 203 202 201 201 202 203 204 204 205 206 207 208 208 208 208 208 209 209 209 210 211 212 213 213 215 216 216 217 218 219 220 221 222 223 223 224 224 225 226 227 228
186 190 193 195 195 194 193 192 193 194 196 198 199 200 201 202 203 205 207 209 209 209 209 209 208 208 207 206 205 203 201 201 202 204 205 205 206 207 208 209 209 209 209 209 209 209 209 210 211 212 213 214 215 216 217 217 218 219 220 221 222 223 223 224 225 226 226 227 228
183 189 193 196 196 196 194 193 193 194 196 198 200 201 202 203 203 204 206 208 209 210 210 210 210 209 208 207 205 203 201 201 203 205 207 208 207 208 208 209 209 209 209 209 209 209 209 210 211 213 214 215 216 217 217 218 219 219 220 221 222 223 223 224 225 226 227 228 229
176 185 191 194 196 196 195 194 194 194 195 197 199 201 202 203 203 204 206 208 209 210 210 211 210 208 206 204 203 202 201 202 205 207 209 209 209 209 209 209 209 209 209 208 208 208 209 210 212 213 214 216 217 218 218 218 219 220 221 222 222 223 223 224 225 226 227 228 229
171 184 191 195 196 197 197 196 196 196 196 197 199 201 203 203 204 205 206 208 209 209 210 210 208 205 203 202 201 201 202 204 207 209 210 210 209 209 209 209 208 208 208 208 208 209 210 211 213 214 215 216 217 218 218 219 219 220 221 222 223 223 224 225 225 226 227 229 230
160 184 192 196 198 200 201 200 200 200 200 200 201 202 203 204 204 205 206 207 207 207 207 206 204 202 200 199 200 201 203 205 208 210 210 210 210 209 208 208 208 207 208 208 209 210 211 213 214 215 216 217 218 219 219 219 220 221 222 223 223 223 224 225 226 227 228 229 230
121 175 190 194 197 200 202 204 204 204 204 203 204 204 205 205 204 204 204 204 205 205 205 203 201 198 197 198 200 202 204 206 208 209 210 210 210 209 208 208 208 208 208 209 210 211 213 214 215 216 216 217 218 219 219 220 220 221 222 223 223 224 224 225 226 227 228 229 230
86 128 177 189 193 196 199 203 205 206 205 205 206 206 206 205 203 202 203 205 206 206 205 202 199 197 196 197 200 202 205 206 207 208 209 210 210 209 209 208 208 208 209 210 212 213 214 215 216 216 217 218 219 219 220 220 220 221 222 223 224 224 225 226 227 228 229 229 230
79 90 132 175 185 190 195 200 204 205 205 205 206 207 206 204 203 203 205 207 208 207 204 201 199 198 198 199 200 202 203 204 205 207 208 209 210 210 209 209 209 210 211 213 214 215 216 216 217 217 217 218 219 219 220 220 221 222 222 223 224 224 225 226 227 228 229 230 231
76 83 100 138 168 180 189 197 201 203 203 204 205 205 205 204 205 207 209 209 208 205 202 200 201 201 202 201 201 201 202 203 204 206 208 209 210 210 210 210 210 212 213 215 216 217 217 217 217 217 218 218 219 219 220 220 221 222 223 224 224 225 226 226 227 228 229 230 231
74 82 96 113 137 162 181 192 197 199 200 201 203 204 205 206 208 210 210 208 204 201 200 201 203 205 204 203 202 201 201 202 204 206 208 209 210 210 211 211 213 214 216 218 218 218 218 218 218 218 218 219 219 220 220 221 221 222 223 224 225 226 226 227 228 229 230 230 231
69 78 90 105 117 134 160 179 189 194 197 199 202 204 206 207 208 208 206 202 199 198 200 203 206 207 206 204 203 203 203 203 205 207 209 210 210 211 212 213 215 217 219 220 219 219 218 218 218 218 219 219 220 220 221 221 222 223 224 225 226 227 227 228 229 229 230 231 231
61 70 81 93 106 117 131 153 175 188 194 198 200 203 204 205 203 201 199 197 196 198 201 205 207 208 208 206 206 205 206 206 207 209 211 212 212 213 214 216 218 219 220 220 219 218 218 218 218 219 220 220 221 221 222 222 223 224 225 226 227 228 229 230 230 231 231 232 232
49 58 69 81 95 109 122 136 156 175 187 193 196 198 199 198 197 195 194 195 197 200 203 206 208 210 210 209 209 209 209 209 210 212 213 214 215 216 217 218 219 220 220 219 219 218 218 218 219 219 220 221 222 222 223 224 225 226 227 228 229 230 231 232 232 233 233 233 234
35 43 55 69 85 103 119 133 147 161 174 184 190 192 192 193 193 193 195 197 200 203 206 208 210 211 212 212 212 212 212 213 213 214 216 216 217 218 219 219 219 219 219 219 218 218 218 219 219 220 221 221 222 223 224 225 226 227 228 229 231 232 233 234 234 234 234 234 234
18 23 36 55 75 95 114 133 147 158 168 176 184 189 191 193 195 198 200 202 205 207 208 210 211 212 212 213 214 214 214 215 216 217 218 218 219 219 219 220 219 219 219 219 219 219 219 220 220 221 221 222 223 224 225 226 227 228 229 230 231 233 234 235 235 234 233 233 233
5 4 9 26 51 79 106 131 151 165 174 181 187 192 196 199 202 205 207 209 209 210 211 213 213 212 212 214 215 216 216 217 218 218 219 220 220 221 221 220 220 219 219 219 220 220 220 220 221 221 221 222 223 224 225 226 227 228 229 230 231 233 234 235 235 234 233 232 232
359 356 352 344 343 342 331 191 192 197 200 202 203 204 205 207 209 211 213 214 213 213 214 216 215 213 213 214 215 216 217 218 219 220 220 221 221 222 222 221 221 220 220 220 220 220 220 221 221 221 222 223 223 225 226 227 228 228 229 230 231 233 234 234 234 233 232 231 230
354 351 346 335 322 306 288 275 267 258 249 241 233 227 221 218 215 214 214 214 214 214 215 216 215 214 213 214 215 216 217 219 220 221 221 222 222 222 222 222 221 221 220 221 221 221 221 221 222 222 222 223 224 225 226 227 228 229 229 230 231 232 233 234 233 232 231 229 229
345 340 336 330 321 307 292 280 275 271 268 264 258 250 241 231 224 219 216 214 213 213 213 214 214 215 215 215 215 216 218 219 220 221 222 222 222 222 222 222 221 221 221 221 221 221 221 222 222 223 224 225 225 226 227 228 228 229 230 231 231 233 233 233 232 231 229 228 228
334 326 320 315 310 305 297 286 277 272 269 266 264 260 254 245 234 226 221 217 215 214 214 215 216 217 217 217 217 218 219 220 220 221 222 222 222 222 223 223 223 223 222 222 221 221 221 222 223 224 225 226 227 228 228 229 229 230 230 231 232 233 233 233 232 230 229 228 228
325 317 309 303 300 298 296 291 283 276 269 264 260 258 254 249 242 234 227 223 220 218 218 219 220 220 220 220 220 220 220 220 221 221 222 222 222 223 224 225 225 224 224 223 222 222 222 223 224 225 226 227 228 229 230 230 230 230 231 232 232 233 233 232 231 229 229 229 229
313 308 303 298 295 294 294 293 290 285 277 269 262 256 252 249 245 240 234 230 226 224 223 223 222 222 221 221 221 221 221 221 221 221 222 222 222 223 224 224 225 225 225 225 224 224 224 224 225 226 227 228 229 230 230 231 231 231 231 232 233 233 233 232 231 230 229 229 230
303 298 295 292 290 289 290 292 292 290 285 278 271 263 256 251 247 244 240 236 232 230 228 226 225 223 221 221 221 221 221 221 221 221 221 222 222 222 223 223 225 226 226 226 226 226 226 226 226 227 227 228 230 231 231 231 232 232 232 233 233 232 232 231 231 230 230 231 231
298 293 288 285 283 282 283 285 286 287 287 283 278 271 263 256 251 247 244 241 237 234 232 229 227 224 223 222 222 222 222 222 221 221 221 221 221 222 222 222 223 224 225 226 226 227 227 227 227 228 228 229 231 232 233 234 234 234 234 234 233 232 232 232 231 231 231 232 233
297 291 286 282 280 278 277 277 277 279 279 279 278 275 269 262 255 251 247 244 241 237 234 231 228 226 224 224 224 224 223 222 222 221 220 220 220 220 221 221 221 222 223 223 225 226 227 227 227 228 229 230 232 234 236 237 237 237 237 236 235 234 233 233 232 232 232 232 233
300 293 287 283 280 278 275 273 271 270 270 270 271 272 271 266 259 253 249 245 242 239 236 233 230 227 225 225 225 225 225 224 223 222 221 220 220 219 219 220 220 220 221 221 222 224 225 226 226 227 228 229 231 234 235 237 238 239 239 238 237 235 234 234 233 232 232 233 234
302 296 290 285 281 278 276 273 269 266 264 263 264 266 267 266 261 255 249 245 241 239 236 234 232 230 228 226 226 226 226 226 226 225 224 223 222 221 220 220 220 220 220 220 221 222 223 224 225 226 226 228 229 231 233 235 236 238 238 237 237 235 234 233 233 233 233 234 235
299 297 293 288 283 279 277 274 270 266 263 261 260 260 261 261 260 256 250 245 240 237 234 232 232 232 231 229 227 227 227 227 228 228 227 226 225 224 223 222 222 222 222 222 222 223 223 224 224 225 225 226 228 229 231 232 234 235 236 235 234 233 233 232 232 233 234 235 236
297 296 294 290 286 282 278 275 272 269 265 262 260 257 255 254 255 255 252 247 242 237 233 231 231 231 231 231 230 228 227 227 228 228 228 228 227 226 225 224 224 224 224 224 224 225 225 225 225 225 225 225 227 228 230 231 232 233 233 233 232 232 231 232 233 234 235 236 237
299 295 293 291 288 285 281 278 274 271 268 266 262 258 252 249 249 251 252 250 245 240 235 232 231 231 231 232 231 230 229 227 227 227 227 227 226 226 226 226 226 226 225 225 226 226 226 225 225 224 224 224 226 227 229 230 231 231 231 231 231 231 231 232 233 234 236 237 238
305 298 293 290 289 287 284 281 277 274 271 268 266 261 255 248 245 246 249 251 249 245 240 236 234 232 232 232 232 231 230 228 227 227 226 225 225 225 225 226 227 227 226 225 225 225 225 224 223 222 222 223 225 227 228 229 230 230 230 230 230 231 231 233 234 235 236 237 238
313 304 297 291 288 286 285 283 280 277 274 271 268 265 260 252 245 243 245 248 249 248 246 242 239 236 234 233 233 233 232 230 229 228 226 225 223 223 223 225 226 226 226 225 224 223 222 221 221 220 221 223 225 227 228 229 230 230 230 230 230 231 232 234 235 237 237 238 238
318 312 304 295 290 286 284 283 282 279 276 273 269 267 264 259 250 244 242 243 245 247 248 247 244 241 238 236 235 235 234 232 230 229 227 225 222 221 222 223 225 226 225 224 223 221 220 219 219 219 220 223 225 227 229 229 230 230 230 230 231 232 233 235 236 237 237 238 238
319 316 311 303 294 288 284 282 280 278 276 274 271 268 266 263 257 251 245 243 243 244 245 246 247 246 243 240 238 237 236 234 231 229 227 224 222 221 221 223 225 226 225 224 222 221 220 220 219 219 221 223 226 228 229 229 229 230 230 231 231 232 234 235 236 237 237 238 238
319 318 315 309 301 293 286 281 278 276 275 274 271 268 266 264 261 256 251 248 246 244 242 243 245 247 247 244 241 239 237 235 232 229 227 224 222 221 222 223 225 226 225 223 222 221 221 221 221 221 222 224 226 228 229 229 229 229 230 231 232 232 234 235 236 237 237 238 239